Regional Weather Roundup
Issued by NWS

Home | Current Version | Previous Version | Graphics & Text | Print | Product List | Glossary On
Versions: 1 2 3 4 5 6 7 8 9 10 11 12 13 14 15 16 17 18 19 20 21 22 23 24 25 26 27 28 29 30 31 32 33 34 35 36 37 38 39 40 41 42 43 44 45 46 47 48 49 50
000
ASUS43 KBIS 300220
RWRND

NORTH DAKOTA REGIONAL WEATHER ROUNDUP
NATIONAL WEATHER SERVICE BISMARCK ND
900 PM CDT MON SEP 29 2014

NOTE: "FAIR" INDICATES FEW OR NO CLOUDS BELOW 12,000 FEET WITH NO
SIGNIFICANT WEATHER AND/OR OBSTRUCTIONS TO VISIBILITY.


NDZ001>003-009>011-017-300300-
NORTHWEST NORTH DAKOTA

CITY           SKY/WX    TMP DP  RH WIND       PRES   REMARKS
WILLISTON      LGT RAIN  51  47  86 SE8       29.94F
MINOT          CLOUDY    51  45  79 E10       30.00F
MINOT AFB      MOCLDY    51  47  86 SE12      30.00F
$$

NDZ018>021-031>035-040>046-300300-
SOUTHWEST NORTH DAKOTA

CITY           SKY/WX    TMP DP  RH WIND       PRES   REMARKS
BISMARCK       CLOUDY    56  48  74 E15       29.99F
DICKINSON      CLOUDY    50  48  93 E10       29.91F
GARRISON         N/A     54  48  80 SE13G18   29.98F
HETTINGER ARPT CLOUDY    51  50  96 E14       29.93F FOG
$$

NDZ004>008-012>016-024-026-027-054-300300-
NORTHEAST NORTH DAKOTA

CITY           SKY/WX    TMP DP  RH WIND       PRES   REMARKS
GRAND FORKS    CLEAR     49  45  86 E8        30.08F
GRND FRKS AFB  CLEAR     45  45  99 NE2       30.09F
DEVILS LAKE    PTCLDY    50  41  71 E7        30.05S
$$

NDZ022-023-025-028>030-036>039-047>053-300300-
SOUTHEAST NORTH DAKOTA

CITY           SKY/WX    TMP DP  RH WIND       PRES   REMARKS
FARGO          CLEAR     54  46  74 SE9       30.08R
JAMESTOWN      PTCLDY    49  46  90 NE6       30.03F
$$




USA.gov is the U.S. government's official web portal to all federal, state and local government web resources and services.